Regional Weather Roundup
Issued by NWS

Home | Current Version | Previous Version | Text Only | Print | Product List | Glossary On
Versions: 1 2 3 4 5 6 7 8 9 10 11 12 13 14 15 16 17 18 19 20 21 22 23 24 25 26 27 28 29 30 31 32 33 34 35 36 37 38 39 40 41 42 43 44 45 46 47 48 49 50
000
ASUS43 KTOP 280259
RWRKS

WEATHER ROUNDUP FOR KANSAS
NATIONAL WEATHER SERVICE GOODLAND KS
900 PM CST TUE JAN 27 2015

NOTE:  "FAIR" INDICATES FEW OR NO CLOUDS BELOW 12,000 FEET WITH NO
SIGNIFICANT WEATHER AND/OR OBSTRUCTIONS TO VISIBILITY.

KSZ001>006-013>018-027>032-041>047-280400-
NORTHWEST KANSAS

CITY           SKY/WX    TMP DP  RH WIND       PRES   REMARKS
GOODLAND       MOCLDY    53  28  38 S9        29.96F
HAYS           CLEAR     54  27  35 W3        29.94S
HILL CITY      CLEAR     43  28  55 W5        29.93S
RUSSELL        CLEAR     54  31  41 S13       29.91S
$$

KSZ061>065-074>080-084>089-280400-
SOUTHWEST KANSAS

CITY           SKY/WX    TMP DP  RH WIND       PRES   REMARKS
DODGE CITY     PTCLDY    57  30  35 SW14      30.00S
ELKHART          N/A     54  32  43 S13         N/A
GARDEN CITY    MOCLDY    51  31  46 S7        29.99S
LIBERAL        PTCLDY    50  28  43 SW9       30.04S
$$

KSZ066>073-081>083-090>101-280400-
SOUTHEAST KANSAS

CITY           SKY/WX    TMP DP  RH WIND       PRES   REMARKS
CHANUTE        CLEAR     48  34  58 SE10      30.04F
COFFEYVILLE    CLEAR     48  33  56 SE5       30.04F
HUTCHINSON     CLEAR     50  35  56 SE6       29.97S
MEDICINE LODGE   N/A     62  29  28 S9        29.98S
NEWTON         CLEAR     55  34  44 S12       29.99F
PARSONS        CLEAR     52  33  48 VRB3      30.06S
WICHITA INTL   CLEAR     57  36  45 S12       29.98S
WICHITA JABRA  CLEAR     55  35  47 S12       29.98F
WINFIELD       CLEAR     53  31  42 S8        30.02S
$$

KSZ007>012-019>026-033>040-048>060-102>105-280400-
NORTHEAST KANSAS

CITY           SKY/WX    TMP DP  RH WIND       PRES   REMARKS
CONCORDIA      CLEAR     49  34  56 SE12      29.93F
EMPORIA        CLEAR     47  35  63 SE13      30.00F
LAWRENCE       CLEAR     41  30  65 SE10      30.07S
MANHATTAN      CLEAR     50  35  56 E8        29.99F
OLATHE IND     CLEAR     44  31  60 SE9       30.08F
OLATHE EXE     CLEAR     44  31  60 SE7       30.08F
SALINA         CLEAR     55  37  50 S14       29.92F
TOPEKA BILLARD CLEAR     47  32  56 E10       30.05F
TOPEKA FORBES  CLEAR     47  31  53 SE12      30.03F
$$


USA.gov is the U.S. government's official web portal to all federal, state and local government web resources and services.